Location: San Martino di Castrozza
(46.2667°N, 11.8000°E)
Time: 03:31:09
(UTC+00:00)

CZ-2C R/B - Pass Details

Date: 23 April 2021
Orbit: 668 x 784 km, 98.2° (Epoch: 15 May)

Event Time Altitude Azimuth Distance (km) Brightness Sun altitude
Rises 02:49:20 0° 16° (NNE) 3,102 6.5 -13.5°
Reaches altitude 10° 02:51:36 10° 21° (NNE) 2,195 5.7 -13.2°
Maximum altitude 02:56:22 60° 101° (E) 831 2.9 -12.5°
Drops below altitude 10° 03:01:16 10° 182° (S) 2,253 4.6 -11.8°
Enters shadow 03:03:35 - 185° (S) 3,181 5.3 -11.5°
